Simultaneous Nadir Overpasses (SNOs) Predictions

Prediction of SNOs between FY3D and TERRA Satellite Orbit:

Table of predicted SNOs for the next 14.0 days since TLE Epoch: 1/2/2021
Index Date (FY3D) Time (FY3D) Lat,Lon (FY3D) SZA (FY3D ) Date (TERRA) Time (TERRA) Lat,Lon (TERRA) SZA (TERRA ) Distance(km) Time Diff (sec)
1 01/02/2021 07:57:32 70.30, 58.63 93.10 01/02/2021 07:58:37 70.19, 61.26 92.97 99.22 65
2 01/02/2021 08:47:55 -69.24,-132.47 87.99 01/02/2021 08:48:22 -69.25,-132.40 87.98 2.99 27
3 01/02/2021 09:38:38 69.08, 35.07 91.84 01/02/2021 09:37:50 69.09, 35.04 91.86 2.27 48
4 01/05/2021 01:04:16 -69.23, -16.54 88.27 01/05/2021 01:04:51 -69.21, -16.58 88.30 3.04 35
5 01/05/2021 01:55:00 69.12, 150.93 91.62 01/05/2021 01:54:18 69.10, 150.93 91.60 2.03 42
6 01/07/2021 17:20:37 -69.28, 99.32 88.55 01/07/2021 17:21:17 -69.27, 99.38 88.56 2.42 40
7 01/07/2021 18:11:20 69.12, -93.14 91.28 01/07/2021 18:10:45 69.11, -93.19 91.28 2.21 35
8 01/10/2021 09:36:58 -69.27,-144.74 88.93 01/10/2021 09:37:45 -69.27,-144.74 88.94 0.24 47
9 01/10/2021 10:27:42 69.16, 22.72 90.95 01/10/2021 10:27:12 69.16, 22.76 90.95 1.52 30
10 01/10/2021 11:18:05 -68.10,-168.53 90.14 01/10/2021 11:16:58 -68.17,-170.84 90.04 95.58 67
11 01/13/2021 01:53:19 -69.27, -28.81 89.37 01/13/2021 01:54:13 -69.27, -28.86 89.37 2.09 54
12 01/13/2021 02:44:03 69.16, 138.66 90.52 01/13/2021 02:43:40 69.15, 138.63 90.52 1.11 23
13 01/13/2021 03:34:31 -68.36, -52.95 90.30 01/13/2021 03:33:22 -68.39, -54.69 90.25 71.67 69
14 01/15/2021 18:09:41 -69.32, 87.05 89.79 01/15/2021 18:10:40 -69.31, 87.08 89.80 1.27 59
15 01/15/2021 19:00:25 69.21,-105.49 90.09 01/15/2021 19:00:07 69.20,-105.43 90.08 2.62 18
16 01/15/2021 19:50:56 -68.57, 62.70 90.57 01/15/2021 19:49:46 -68.60, 61.44 90.52 51.23 70



Historial Predications of SNOs between FY3D and TERRA
